Tracking 30072 objects as of 14-Jan-2025
HD Live streaming from Space Station
objects crossing your sky now

SHIYAN 10 02 (SY-10 02)

Track SHIYAN 10 02 (SY-10 02) now!


NORAD ID: 54878
Int'l Code: 2022-178A
Perigee: 1,237.4 km
Apogee: 39,126.3 km
Inclination: 63.9 °
Period: 717.7 minutes
Semi major axis: 26552 km
RCS: Unknown
Launch date: December 29, 2022
Source: People's Republic of China (PRC)
Launch site: Xichang Space Center, China (XSC)
Your satellite tracking list
Your tracking list is empty




NASA's NSSDC Master Catalog

Two Line Element Set (TLE):
1 54878U 22178A   24352.33187243  .00000801  00000-0  00000-0 0  9998
2 54878  63.8861  26.1562 7134614 269.1223  16.0811  2.00648522  5583
Source of the keplerian elements: AFSPC